Orbital Elements at Epoch 2459200.5 (2020-Dec-17.0) TDB
Reference: JPL 20 (heliocentric ecliptic J2000)
Element | Value | Uncertainty (1-sigma) | Units |
e | .1083184858660872 | 6.2763e-08 | |
a | 2.839643601252885 | 2.0672e-08 | au |
q | 2.532057705965849 | 1.7299e-07 | au |
i | 5.435604333422627 | 5.5962e-06 | deg |
node | 41.44575163959806 | 4.6916e-05 | deg |
peri | 312.3387673457822 | 5.0866e-05 | deg |
M | 117.3767773128195 | 2.0624e-05 | deg |
tp | 2458630.632536935451 (2019-May-27.13253694) | 9.8855e-05 | TDB |
period | 1747.809842797852 4.79 | 1.9085e-05 5.225e-08 | d yr |
n | .2059720635419472 | 2.2491e-09 | deg/d |
Q | 3.147229496539921 | 2.2911e-08 | au |
|
| | Orbit Determination Parameters
Additional Information
|